Regional Weather Roundup
Issued by NWS Albany, NY

Current Version | Previous Version | Text Only | Print | Product List | Glossary On
Versions: 1 2 3 4 5 6 7 8 9 10 11 12 13 14 15 16 17 18 19 20 21 22 23 24 25 26 27 28 29 30 31 32 33 34 35 36 37 38 39 40 41 42 43 44 45 46 47 48 49 50
000
ASUS41 KALY 290010
RWRALY

NEW YORK STATE HOURLY WEATHER ROUNDUP
NATIONAL WEATHER SERVICE ALBANY NY
800 PM EDT WED OCT 28 2020

NOTE: "FAIR" INDICATES FEW OR NO CLOUDS BELOW 12,000 FEET WITH NO
SIGNIFICANT WEATHER AND/OR NO OBSTRUCTIONS TO VISIBILITY.

NYZ032-033-038>043-046>054-057>066-NYZ062>081-082-084-290100-
EAST


CITY           SKY/WX    TMP DP  RH WIND       PRES   REMARKS
ALBANY         MOCLDY    42  42 100 CALM      29.98R
GLENS FALLS    FOG       41  41 100 S3        29.96S VSB 3/4
POUGHKEEPSIE   PTCLDY    48  46  93 CALM      29.97R FOG
NEWBURGH       MOCLDY    50  50 100 CALM      29.98R
MONTGOMERY     PTCLDY    47  47 100 CALM      29.97R
WHITE PLAINS   PTCLDY    50  49  96 CALM      29.97R
ISLIP          CLOUDY    55  53  93 CALM      29.97S
NEW YORK CITY  CLOUDY    59  49  69 W9        29.98S
CENTRAL PARK   CLOUDY    56  51  84 CALM      30.01S
$$

NYZ005>009-017-018-044>046-055-056-290100-
CENTRAL


CITY           SKY/WX    TMP DP  RH WIND       PRES   REMARKS
FULTON         PTCLDY    41  37  86 S3        29.96R
SYRACUSE       MOCLDY    44  38  79 S3        29.96F
ROME           PTCLDY    40  37  89 NE3       29.98R
ELMIRA         PTCLDY    43  40  89 CALM      29.98R
BINGHAMTON     PTCLDY    45  42  89 SW7       29.96S
MONTICELLO     MOCLDY    45  45 100 W3        29.98S
$$

NYZ026>034-041>043-087-290100-
NORTH


CITY           SKY/WX    TMP DP  RH WIND       PRES   REMARKS
WATERTOWN      PTCLDY    49  39  68 SW9       29.94R
FORT DRUM      NOT AVBL
OGDENSBURG     FAIR      45  36  70 SW9       29.91R
MASSENA        PTCLDY    45  37  73 SW12      29.91R
SARANAC LAKE   CLOUDY    41  37  86 SW9G22    29.90R
PLATTSBURGH    MOCLDY    49  37  63 SW6       29.90R
$$

NYZ001>004-010>016-019>021-085-290100-
WEST


CITY           SKY/WX    TMP DP  RH WIND       PRES   REMARKS
NIAGARA FALLS  PTCLDY    47  40  76 SW12      29.95S
BUFFALO        MOCLDY    51  40  65 SW20      29.95S
DUNKIRK        MOCLDY    47  41  80 S8        29.99R
JAMESTOWN      PTCLDY    43  38  82 SW7       30.00R
WELLSVILLE     PTCLDY    42  37  82 W5        29.98F
ROCHESTER      PTCLDY    44  39  82 SW7       29.96F
PENN YAN       PTCLDY    39  37  92 S5        29.97S
$$

             KEY
       WCI = WIND CHILL INDEX
       VSB = VISIBILITY
       HX  = HEAT INDEX
$$



USA.gov is the U.S. government's official web portal to all federal, state and local government web resources and services.